When you browse on this site, cookies collect data to enhance your experience and personalize the content and advertising you see.
Visit our Privacy Policy to learn more. By continuing to use the site, you agree to this use of cookies and data.
  • In Hungary
  • List of Countries
  • For 7 days
  • Water Temperature
  • Weather Map
  • News
  • Weather Widgets
  • user-avatar
    Login

    Hourly Weather Podosinki

    Today, 26 February, Wednesday

    Time Temperature Precipitation Wind Pressure Humidity
    00:00 -2°C° 0.3 mm 4 mps 732 mmHg 91%
    01:00 -2°C° 0.3 mm 4 mps 731 mmHg 94%
    02:00 -2°C° 0 mm 4 mps 730 mmHg 96%
    03:00 -1°C° 0.1 mm 4 mps 730 mmHg 96%
    04:00 0°C° 0.1 mm 3 mps 729 mmHg 96%
    05:00 +1°C° 0.1 mm 3 mps 728 mmHg 97%
    06:00 0°C° 1.1 mm 4 mps 728 mmHg 97%
    07:00 +1°C° 1.1 mm 4 mps 728 mmHg 97%
    08:00 +1°C° 1.1 mm 4 mps 728 mmHg 96%
    09:00 +1°C° 0.1 mm 4 mps 728 mmHg 95%
    10:00 +2°C° 0.1 mm 3 mps 728 mmHg 94%
    11:00 +2°C° 0.1 mm 3 mps 728 mmHg 93%
    12:00 +4°C° 0 mm 2 mps 728 mmHg 88%
    13:00 +4°C° 0 mm 2 mps 728 mmHg 84%
    14:00 +4°C° 0 mm 2 mps 729 mmHg 79%
    15:00 +5°C° 0 mm 1 mps 729 mmHg 83%
    16:00 +4°C° 0 mm 1 mps 729 mmHg 86%
    17:00 +3°C° 0 mm 1 mps 729 mmHg 90%
    18:00 +2°C° 0 mm 1 mps 729 mmHg 91%
    19:00 +2°C° 0 mm 1 mps 730 mmHg 92%
    20:00 +1°C° 0 mm 2 mps 730 mmHg 93%
    21:00 +2°C° 0 mm 1 mps 730 mmHg 94%
    22:00 +2°C° 0 mm 1 mps 730 mmHg 94%
    23:00 +2°C° 0 mm 1 mps 730 mmHg 94%

    Tomorrow, 27 February, Thursday

    Time Temperature Precipitation Wind Pressure Humidity
    00:00 +1°C° 0 mm 1 mps 730 mmHg 94%
    01:00 +1°C° 0 mm 1 mps 730 mmHg 94%
    02:00 +1°C° 0 mm 1 mps 729 mmHg 94%
    03:00 +1°C° 0 mm 1 mps 729 mmHg 94%
    04:00 -1°C° 0 mm 2 mps 729 mmHg 94%
    05:00 -1°C° 0 mm 2 mps 728 mmHg 94%
    06:00 +1°C° 0.1 mm 2 mps 728 mmHg 94%
    07:00 +1°C° 0.1 mm 2 mps 728 mmHg 95%
    08:00 +1°C° 0.1 mm 2 mps 728 mmHg 95%
    09:00 +1°C° 0.2 mm 2 mps 727 mmHg 94%
    10:00 +2°C° 0.2 mm 2 mps 727 mmHg 93%
    11:00 +2°C° 0.2 mm 2 mps 727 mmHg 93%
    12:00 +2°C° 0.1 mm 2 mps 727 mmHg 94%
    13:00 +3°C° 0.1 mm 1 mps 727 mmHg 96%
    14:00 +3°C° 0.1 mm 1 mps 727 mmHg 98%
    15:00 +3°C° 0.2 mm 1 mps 727 mmHg 97%
    16:00 +2°C° 0.2 mm 2 mps 727 mmHg 97%
    17:00 +1°C° 0.2 mm 2 mps 727 mmHg 97%
    18:00 0°C° 0.1 mm 3 mps 727 mmHg 93%
    19:00 -1°C° 0.1 mm 4 mps 728 mmHg 88%
    20:00 -1°C° 0.1 mm 5 mps 728 mmHg 84%
    21:00 -1°C° 0 mm 4 mps 728 mmHg 85%
    22:00 -2°C° 0 mm 4 mps 728 mmHg 85%
    23:00 -2°C° 0 mm 4 mps 728 mmHg 86%

    Day after tomorrow, 28 February, Friday

    Time Temperature Precipitation Wind Pressure Humidity
    00:00 -3°C° 0 mm 4 mps 729 mmHg 86%
    01:00 -3°C° 0 mm 4 mps 729 mmHg 86%
    02:00 -3°C° 0 mm 4 mps 729 mmHg 87%
    03:00 -3°C° 0 mm 4 mps 729 mmHg 86%
    04:00 -3°C° 0 mm 4 mps 729 mmHg 86%
    05:00 -3°C° 0 mm 4 mps 730 mmHg 85%
    06:00 -2°C° 0 mm 3 mps 730 mmHg 84%
    07:00 -2°C° 0 mm 3 mps 730 mmHg 83%
    08:00 -2°C° 0 mm 3 mps 731 mmHg 82%
    09:00 -2°C° 0 mm 3 mps 731 mmHg 79%
    10:00 -1°C° 0 mm 3 mps 731 mmHg 76%
    11:00 -1°C° 0 mm 3 mps 731 mmHg 73%
    12:00 -2°C° 0 mm 4 mps 731 mmHg 73%
    13:00 -2°C° 0 mm 4 mps 732 mmHg 72%
    14:00 -1°C° 0 mm 4 mps 732 mmHg 71%
    15:00 -2°C° 0 mm 4 mps 733 mmHg 73%
    16:00 -2°C° 0 mm 4 mps 733 mmHg 75%
    17:00 -1°C° 0 mm 3 mps 733 mmHg 76%
    18:00 -2°C° 0 mm 3 mps 733 mmHg 79%
    19:00 -2°C° 0 mm 3 mps 734 mmHg 81%
    20:00 -2°C° 0 mm 3 mps 734 mmHg 84%
    21:00 -4°C° 0 mm 3 mps 734 mmHg 85%
    22:00 -4°C° 0 mm 3 mps 735 mmHg 86%
    23:00 -4°C° 0 mm 3 mps 735 mmHg 87%

    29 February, Saturday

    Time Temperature Precipitation Wind Pressure Humidity
    00:00 -4°C° 0 mm 3 mps 735 mmHg 85%
    01:00 -4°C° 0 mm 3 mps 735 mmHg 84%
    02:00 -4°C° 0 mm 3 mps 736 mmHg 83%
    03:00 -4°C° 0 mm 3 mps 736 mmHg 84%
    04:00 -3°C° 0 mm 2 mps 736 mmHg 85%
    05:00 -3°C° 0 mm 2 mps 736 mmHg 86%
    06:00 -2°C° 0 mm 2 mps 736 mmHg 86%
    07:00 -2°C° 0 mm 3 mps 736 mmHg 86%
    08:00 -2°C° 0 mm 3 mps 737 mmHg 86%
    09:00 -1°C° 0.1 mm 3 mps 737 mmHg 87%
    10:00 -1°C° 0.1 mm 3 mps 737 mmHg 88%
    11:00 0°C° 0.1 mm 3 mps 737 mmHg 89%
    12:00 -1°C° 0.4 mm 4 mps 737 mmHg 84%
    13:00 -1°C° 0.4 mm 4 mps 738 mmHg 80%
    14:00 -1°C° 0.4 mm 4 mps 738 mmHg 76%
    15:00 -1°C° 0 mm 3 mps 738 mmHg 75%
    16:00 -1°C° 0 mm 3 mps 739 mmHg 75%
    17:00 -2°C° 0 mm 2 mps 739 mmHg 75%
    18:00 -2°C° 0 mm 2 mps 740 mmHg 79%
    19:00 -3°C° 0 mm 2 mps 741 mmHg 84%
    20:00 -3°C° 0 mm 2 mps 742 mmHg 88%
    21:00 -3°C° 0 mm 2 mps 742 mmHg 90%
    22:00 -4°C° 0 mm 2 mps 742 mmHg 91%
    23:00 -2°C° 0 mm 1 mps 743 mmHg 93%

    1 March, Sunday

    Time Temperature Precipitation Wind Pressure Humidity
    00:00 -2°C° 0 mm 1 mps 743 mmHg 92%
    01:00 -2°C° 0 mm 1 mps 743 mmHg 91%
    02:00 -4°C° 0 mm 2 mps 744 mmHg 90%
    03:00 -4°C° 0 mm 2 mps 744 mmHg 89%
    04:00 -4°C° 0 mm 2 mps 744 mmHg 88%
    05:00 -4°C° 0 mm 2 mps 744 mmHg 87%
    06:00 -4°C° 0 mm 2 mps 744 mmHg 83%
    07:00 -4°C° 0 mm 3 mps 744 mmHg 79%
    08:00 -4°C° 0 mm 3 mps 744 mmHg 75%
    09:00 -3°C° 0 mm 4 mps 744 mmHg 70%
    10:00 -2°C° 0 mm 4 mps 744 mmHg 66%
    11:00 -1°C° 0 mm 5 mps 744 mmHg 61%
    12:00 0°C° 0 mm 5 mps 744 mmHg 59%
    13:00 0°C° 0 mm 5 mps 744 mmHg 56%
    14:00 +1°C° 0 mm 6 mps 743 mmHg 54%
    15:00 0°C° 0 mm 5 mps 743 mmHg 55%
    16:00 0°C° 0 mm 5 mps 743 mmHg 56%
    17:00 -1°C° 0 mm 5 mps 743 mmHg 57%
    18:00 -1°C° 0 mm 5 mps 743 mmHg 58%
    19:00 -1°C° 0 mm 5 mps 743 mmHg 58%
    20:00 -1°C° 0 mm 5 mps 743 mmHg 59%
    21:00 -1°C° 0 mm 5 mps 743 mmHg 60%
    22:00 -1°C° 0 mm 5 mps 743 mmHg 61%
    23:00 -1°C° 0 mm 5 mps 742 mmHg 62%

    2 March, Monday

    Time Temperature Precipitation Wind Pressure Humidity
    00:00 -1°C° 0.1 mm 5 mps 742 mmHg 67%
    01:00 -1°C° 0.1 mm 5 mps 742 mmHg 71%
    02:00 -2°C° 0.1 mm 5 mps 742 mmHg 75%
    03:00 -2°C° 0.3 mm 5 mps 742 mmHg 81%
    04:00 -2°C° 0.3 mm 5 mps 742 mmHg 87%
    05:00 -2°C° 0.3 mm 5 mps 741 mmHg 93%
    06:00 -2°C° 0.2 mm 5 mps 741 mmHg 92%
    07:00 -2°C° 0.2 mm 5 mps 741 mmHg 90%
    08:00 -2°C° 0.2 mm 5 mps 741 mmHg 89%
    09:00 -1°C° 0 mm 5 mps 741 mmHg 89%
    10:00 -1°C° 0 mm 5 mps 741 mmHg 89%
    11:00 -1°C° 0 mm 5 mps 741 mmHg 90%
    12:00 -1°C° 0.3 mm 5 mps 741 mmHg 91%
    13:00 -1°C° 0.3 mm 4 mps 741 mmHg 93%
    14:00 -1°C° 0.3 mm 4 mps 741 mmHg 95%
    15:00 -1°C° 0.3 mm 4 mps 741 mmHg 96%
    16:00 -1°C° 0.3 mm 4 mps 741 mmHg 96%
    17:00 -2°C° 0.3 mm 4 mps 741 mmHg 96%
    18:00 -1°C° 0.2 mm 4 mps 741 mmHg 96%
    19:00 0°C° 0.2 mm 3 mps 741 mmHg 96%
    20:00 0°C° 0.2 mm 3 mps 742 mmHg 96%
    21:00 0°C° 0.1 mm 3 mps 742 mmHg 97%
    22:00 0°C° 0.1 mm 3 mps 742 mmHg 97%
    23:00 +1°C° 0.1 mm 2 mps 742 mmHg 97%
    Show more